Time,TemperatureF,DewpointF,PressureIn,WindDirection,WindDirectionDegrees,WindSpeedMPH,WindSpeedGustMPH,Humidity,HourlyPrecipIn,Conditions,Clouds,dailyrainin,SoftwareType,DateUTC
2013-06-09 00:00:00,72.0,70.8,30.11,NNE,22,0.0,5.0,96,0.00,,,0.00,Wunderground v.1.15,2013-06-09 04:00:00,
2013-06-09 00:05:00,71.9,70.7,30.12,NNE,22,0.0,5.0,96,0.00,,,0.00,Wunderground v.1.15,2013-06-09 04:05:00,
2013-06-09 00:15:00,71.9,70.7,30.12,NNE,22,0.0,5.0,96,0.00,,,0.00,Wunderground v.1.15,2013-06-09 04:15:00,
2013-06-09 00:20:00,71.9,70.7,30.12,NNE,22,0.0,5.0,96,0.00,,,0.00,Wunderground v.1.15,2013-06-09 04:20:00,
2013-06-09 00:30:00,71.9,70.7,30.12,NNE,18,0.0,5.0,96,0.00,,,0.00,Wunderground v.1.15,2013-06-09 04:30:00,
2013-06-09 00:35:00,71.9,70.7,30.12,NNE,18,0.0,5.0,96,0.00,,,0.00,Wunderground v.1.15,2013-06-09 04:35:00,
2013-06-09 00:45:00,71.8,70.6,30.12,WNW,293,0.0,5.0,96,0.00,,,0.00,Wunderground v.1.15,2013-06-09 04:45:00,
2013-06-09 00:50:00,71.6,70.4,30.12,West,268,1.0,1.0,96,0.00,,,0.00,Wunderground v.1.15,2013-06-09 04:50:00,
2013-06-09 00:55:00,71.5,70.3,30.13,West,259,1.0,5.0,96,0.00,,,0.00,Wunderground v.1.15,2013-06-09 04:55:00,
2013-06-09 01:00:00,71.3,70.1,30.12,West,259,0.0,5.0,96,0.00,,,0.00,Wunderground v.1.15,2013-06-09 05:00:00,
2013-06-09 01:05:00,71.2,70.0,30.12,West,259,0.0,5.0,96,0.00,,,0.00,Wunderground v.1.15,2013-06-09 05:05:00,
2013-06-09 01:10:00,71.1,69.9,30.13,West,259,0.0,5.0,96,0.00,,,0.00,Wunderground v.1.15,2013-06-09 05:10:00,
2013-06-09 01:20:00,71.0,69.8,30.13,West,259,0.0,5.0,96,0.00,,,0.00,Wunderground v.1.15,2013-06-09 05:20:00,
2013-06-09 01:25:00,71.0,69.8,30.13,West,259,0.0,5.0,96,0.00,,,0.00,Wunderground v.1.15,2013-06-09 05:25:00,
2013-06-09 01:30:00,70.9,69.7,30.13,West,259,0.0,5.0,96,0.00,,,0.00,Wunderground v.1.15,2013-06-09 05:30:00,
2013-06-09 01:35:00,70.9,69.7,30.13,West,259,0.0,5.0,96,0.00,,,0.00,Wunderground v.1.15,2013-06-09 05:35:00,
2013-06-09 01:40:00,70.9,69.7,30.13,West,259,0.0,5.0,96,0.00,,,0.00,Wunderground v.1.15,2013-06-09 05:40:00,
2013-06-09 01:45:00,70.8,69.6,30.13,West,259,0.0,5.0,96,0.00,,,0.00,Wunderground v.1.15,2013-06-09 05:45:00,
2013-06-09 01:50:00,70.8,69.6,30.13,West,259,0.0,5.0,96,0.00,,,0.00,Wunderground v.1.15,2013-06-09 05:50:00,
2013-06-09 01:55:00,70.8,69.6,30.13,West,259,0.0,5.0,96,0.00,,,0.00,Wunderground v.1.15,2013-06-09 05:55:00,
2013-06-09 02:00:00,70.8,69.6,30.13,West,259,0.0,5.0,96,0.00,,,0.00,Wunderground v.1.15,2013-06-09 06:00:00,
2013-06-09 02:10:00,70.8,69.6,30.13,West,259,0.0,5.0,96,0.00,,,0.00,Wunderground v.1.15,2013-06-09 06:10:00,
2013-06-09 02:20:00,70.8,69.6,30.13,West,259,0.0,5.0,96,0.00,,,0.00,Wunderground v.1.15,2013-06-09 06:20:00,
2013-06-09 02:25:00,70.8,69.6,30.13,West,259,0.0,5.0,96,0.00,,,0.00,Wunderground v.1.15,2013-06-09 06:25:00,
2013-06-09 02:30:00,70.8,69.6,30.13,West,259,0.0,5.0,96,0.00,,,0.00,Wunderground v.1.15,2013-06-09 06:30:00,
2013-06-09 02:35:00,70.8,69.6,30.12,West,259,0.0,5.0,96,0.00,,,0.00,Wunderground v.1.15,2013-06-09 06:35:00,
2013-06-09 02:45:00,70.8,69.6,30.12,West,259,0.0,5.0,96,0.00,,,0.00,Wunderground v.1.15,2013-06-09 06:45:00,
2013-06-09 02:55:00,70.8,69.6,30.11,West,259,0.0,5.0,96,0.00,,,0.00,Wunderground v.1.15,2013-06-09 06:55:00,
2013-06-09 03:00:00,70.7,69.5,30.11,West,259,0.0,5.0,96,0.00,,,0.00,Wunderground v.1.15,2013-06-09 07:00:00,
2013-06-09 03:05:00,70.8,69.6,30.12,West,259,0.0,5.0,96,0.00,,,0.00,Wunderground v.1.15,2013-06-09 07:05:00,
2013-06-09 03:10:00,70.8,69.6,30.11,West,259,0.0,5.0,96,0.00,,,0.00,Wunderground v.1.15,2013-06-09 07:10:00,
2013-06-09 03:15:00,70.9,69.7,30.11,West,260,0.0,5.0,96,0.00,,,0.00,Wunderground v.1.15,2013-06-09 07:15:00,
2013-06-09 03:20:00,70.9,69.7,30.11,West,260,0.0,5.0,96,0.00,,,0.00,Wunderground v.1.15,2013-06-09 07:20:00,
2013-06-09 03:25:00,70.9,69.7,30.11,West,260,0.0,5.0,96,0.00,,,0.00,Wunderground v.1.15,2013-06-09 07:25:00,
2013-06-09 03:30:00,70.8,69.6,30.12,West,260,0.0,5.0,96,0.00,,,0.00,Wunderground v.1.15,2013-06-09 07:30:00,
2013-06-09 03:35:00,70.8,69.6,30.11,West,260,0.0,5.0,96,0.00,,,0.00,Wunderground v.1.15,2013-06-09 07:35:00,
2013-06-09 03:45:00,70.7,69.5,30.12,West,260,0.0,5.0,96,0.00,,,0.00,Wunderground v.1.15,2013-06-09 07:45:00,
2013-06-09 03:50:00,70.7,69.5,30.11,West,260,0.0,5.0,96,0.00,,,0.00,Wunderground v.1.15,2013-06-09 07:50:00,
2013-06-09 03:55:00,70.6,69.4,30.11,West,260,0.0,5.0,96,0.00,,,0.01,Wunderground v.1.15,2013-06-09 07:55:00,
2013-06-09 04:00:00,70.6,69.4,30.11,West,260,0.0,5.0,96,0.00,,,0.01,Wunderground v.1.15,2013-06-09 08:00:00,
2013-06-09 04:05:00,70.6,69.7,30.11,West,260,0.0,5.0,97,0.00,,,0.01,Wunderground v.1.15,2013-06-09 08:05:00,
2013-06-09 04:15:00,70.5,69.6,30.11,West,260,0.0,5.0,97,0.00,,,0.01,Wunderground v.1.15,2013-06-09 08:15:00,
2013-06-09 04:20:00,70.4,69.5,30.11,West,260,0.0,5.0,97,0.00,,,0.01,Wunderground v.1.15,2013-06-09 08:20:00,
2013-06-09 04:25:00,70.4,69.5,30.11,West,260,0.0,5.0,97,0.00,,,0.01,Wunderground v.1.15,2013-06-09 08:25:00,
2013-06-09 04:30:00,70.3,69.4,30.11,West,260,0.0,5.0,97,0.00,,,0.01,Wunderground v.1.15,2013-06-09 08:30:00,
2013-06-09 04:35:00,70.3,69.4,30.11,West,260,0.0,5.0,97,0.00,,,0.01,Wunderground v.1.15,2013-06-09 08:35:00,
2013-06-09 04:40:00,70.2,69.0,30.11,West,260,0.0,5.0,96,0.00,,,0.01,Wunderground v.1.15,2013-06-09 08:40:00,
2013-06-09 04:45:00,70.2,69.0,30.11,West,260,0.0,5.0,96,0.00,,,0.01,Wunderground v.1.15,2013-06-09 08:45:00,
2013-06-09 04:50:00,70.1,68.9,30.10,West,260,0.0,5.0,96,0.00,,,0.01,Wunderground v.1.15,2013-06-09 08:50:00,
2013-06-09 04:55:00,70.1,69.2,30.11,West,260,0.0,5.0,97,0.00,,,0.01,Wunderground v.1.15,2013-06-09 08:55:00,
2013-06-09 05:05:00,70.0,69.1,30.11,West,260,0.0,5.0,97,0.00,,,0.01,Wunderground v.1.15,2013-06-09 09:05:00,
2013-06-09 05:10:00,70.0,69.1,30.11,West,260,0.0,5.0,97,0.00,,,0.01,Wunderground v.1.15,2013-06-09 09:10:00,
2013-06-09 05:15:00,70.0,69.1,30.11,West,260,0.0,5.0,97,0.00,,,0.01,Wunderground v.1.15,2013-06-09 09:15:00,
2013-06-09 05:20:00,70.0,69.1,30.11,West,260,0.0,5.0,97,0.00,,,0.01,Wunderground v.1.15,2013-06-09 09:20:00,
2013-06-09 05:25:00,70.0,69.1,30.11,West,260,0.0,5.0,97,0.00,,,0.01,Wunderground v.1.15,2013-06-09 09:25:00,
2013-06-09 05:30:00,70.0,69.1,30.11,West,260,0.0,5.0,97,0.00,,,0.01,Wunderground v.1.15,2013-06-09 09:30:00,
2013-06-09 05:35:00,70.0,69.1,30.11,West,260,0.0,5.0,97,0.00,,,0.01,Wunderground v.1.15,2013-06-09 09:35:00,
2013-06-09 05:40:00,70.0,69.1,30.12,West,260,0.0,5.0,97,0.00,,,0.01,Wunderground v.1.15,2013-06-09 09:40:00,
2013-06-09 05:45:00,70.0,69.1,30.12,West,260,0.0,5.0,97,0.00,,,0.01,Wunderground v.1.15,2013-06-09 09:45:00,
2013-06-09 05:50:00,69.9,69.0,30.11,West,260,0.0,5.0,97,0.00,,,0.01,Wunderground v.1.15,2013-06-09 09:50:00,
2013-06-09 05:55:00,69.9,69.0,30.11,West,260,0.0,5.0,97,0.00,,,0.01,Wunderground v.1.15,2013-06-09 09:55:00,
2013-06-09 06:00:00,69.9,69.0,30.12,West,260,0.0,5.0,97,0.00,,,0.01,Wunderground v.1.15,2013-06-09 10:00:00,
2013-06-09 06:05:00,69.8,68.9,30.12,West,260,0.0,5.0,97,0.00,,,0.01,Wunderground v.1.15,2013-06-09 10:05:00,
2013-06-09 06:10:00,69.8,68.9,30.12,West,260,0.0,5.0,97,0.00,,,0.01,Wunderground v.1.15,2013-06-09 10:10:00,
2013-06-09 06:15:00,69.8,68.9,30.12,West,260,0.0,5.0,97,0.00,,,0.01,Wunderground v.1.15,2013-06-09 10:15:00,
2013-06-09 06:20:00,69.9,69.0,30.12,West,260,0.0,5.0,97,0.00,,,0.01,Wunderground v.1.15,2013-06-09 10:20:00,
2013-06-09 06:25:00,69.9,69.0,30.12,West,260,0.0,5.0,97,0.00,,,0.01,Wunderground v.1.15,2013-06-09 10:25:00,
2013-06-09 06:30:00,69.9,69.0,30.12,West,260,0.0,5.0,97,0.00,,,0.01,Wunderground v.1.15,2013-06-09 10:30:00,
2013-06-09 06:40:00,70.0,69.1,30.13,West,260,0.0,5.0,97,0.00,,,0.01,Wunderground v.1.15,2013-06-09 10:40:00,
2013-06-09 06:45:00,70.0,69.1,30.13,West,260,0.0,5.0,97,0.00,,,0.01,Wunderground v.1.15,2013-06-09 10:45:00,
2013-06-09 06:55:00,70.0,69.1,30.13,NNW,335,0.0,5.0,97,0.00,,,0.01,Wunderground v.1.15,2013-06-09 10:55:00,
2013-06-09 07:00:00,70.0,69.1,30.13,NNW,335,0.0,0.0,97,0.00,,,0.01,Wunderground v.1.15,2013-06-09 11:00:00,
2013-06-09 07:05:00,70.1,69.2,30.14,NNW,335,0.0,0.0,97,0.00,,,0.01,Wunderground v.1.15,2013-06-09 11:05:00,
2013-06-09 07:15:00,70.3,69.4,30.14,West,270,0.0,0.0,97,0.00,,,0.01,Wunderground v.1.15,2013-06-09 11:15:00,
2013-06-09 07:20:00,70.3,69.4,30.14,West,270,0.0,0.0,97,0.00,,,0.01,Wunderground v.1.15,2013-06-09 11:20:00,
2013-06-09 07:30:00,70.7,69.8,30.14,West,270,0.0,0.0,97,0.00,,,0.01,Wunderground v.1.15,2013-06-09 11:30:00,
2013-06-09 07:35:00,71.0,70.1,30.14,West,270,0.0,0.0,97,0.00,,,0.01,Wunderground v.1.15,2013-06-09 11:35:00,
2013-06-09 07:45:00,71.4,70.5,30.14,West,270,0.0,0.0,97,0.00,,,0.01,Wunderground v.1.15,2013-06-09 11:45:00,
2013-06-09 07:50:00,71.6,70.7,30.14,West,270,0.0,0.0,97,0.00,,,0.01,Wunderground v.1.15,2013-06-09 11:50:00,
2013-06-09 08:00:00,72.1,71.2,30.14,West,270,0.0,0.0,97,0.00,,,0.01,Wunderground v.1.15,2013-06-09 12:00:00,
2013-06-09 08:05:00,72.3,71.4,30.14,West,270,0.0,0.0,97,0.00,,,0.01,Wunderground v.1.15,2013-06-09 12:05:00,
2013-06-09 08:15:00,72.9,72.0,30.14,West,270,0.0,0.0,97,0.00,,,0.01,Wunderground v.1.15,2013-06-09 12:15:00,
2013-06-09 08:20:00,73.2,72.6,30.14,West,270,0.0,0.0,98,0.00,,,0.01,Wunderground v.1.15,2013-06-09 12:20:00,
2013-06-09 08:25:00,73.6,72.7,30.14,West,270,0.0,0.0,97,0.00,,,0.01,Wunderground v.1.15,2013-06-09 12:25:00,
2013-06-09 08:35:00,74.3,73.4,30.14,West,274,0.0,3.0,97,0.00,,,0.01,Wunderground v.1.15,2013-06-09 12:35:00,
2013-06-09 08:40:00,74.4,73.5,30.14,West,271,1.0,1.0,97,0.00,,,0.01,Wunderground v.1.15,2013-06-09 12:40:00,
2013-06-09 08:45:00,74.4,73.5,30.14,West,270,1.0,1.0,97,0.00,,,0.01,Wunderground v.1.15,2013-06-09 12:45:00,
2013-06-09 08:50:00,74.7,73.8,30.15,West,270,0.0,0.0,97,0.00,,,0.01,Wunderground v.1.15,2013-06-09 12:50:00,
2013-06-09 08:55:00,75.0,74.1,30.14,West,266,0.0,0.0,97,0.00,,,0.01,Wunderground v.1.15,2013-06-09 12:55:00,
2013-06-09 09:00:00,75.1,74.2,30.14,West,267,0.0,0.0,97,0.00,,,0.01,Wunderground v.1.15,2013-06-09 13:00:00,
2013-06-09 09:05:00,75.3,74.4,30.15,North,6,0.0,0.0,97,0.00,,,0.01,Wunderground v.1.15,2013-06-09 13:05:00,
2013-06-09 09:10:00,75.4,74.5,30.15,NW,318,0.0,0.0,97,0.00,,,0.01,Wunderground v.1.15,2013-06-09 13:10:00,
2013-06-09 09:20:00,75.9,75.0,30.14,NW,318,0.0,0.0,97,0.00,,,0.01,Wunderground v.1.15,2013-06-09 13:20:00,
2013-06-09 09:25:00,76.2,75.3,30.15,NW,320,1.0,1.0,97,0.00,,,0.01,Wunderground v.1.15,2013-06-09 13:25:00,
2013-06-09 09:35:00,76.4,75.5,30.15,NW,324,1.0,1.0,97,0.00,,,0.01,Wunderground v.1.15,2013-06-09 13:35:00,
2013-06-09 09:45:00,77.3,76.4,30.15,NW,307,0.0,1.0,97,0.00,,,0.01,Wunderground v.1.15,2013-06-09 13:45:00,
2013-06-09 09:50:00,77.6,76.7,30.15,NW,307,0.0,0.0,97,0.00,,,0.01,Wunderground v.1.15,2013-06-09 13:50:00,
2013-06-09 09:55:00,78.3,77.4,30.15,NW,307,0.0,0.0,97,0.00,,,0.01,Wunderground v.1.15,2013-06-09 13:55:00,
2013-06-09 10:05:00,78.9,77.7,30.15,NW,306,1.0,2.0,96,0.00,,,0.01,Wunderground v.1.15,2013-06-09 14:05:00,
2013-06-09 10:10:00,79.3,77.7,30.14,NNW,343,1.0,2.0,95,0.00,,,0.01,Wunderground v.1.15,2013-06-09 14:10:00,
2013-06-09 10:20:00,80.0,77.8,30.14,NW,306,1.0,1.0,93,0.00,,,0.01,Wunderground v.1.15,2013-06-09 14:20:00,
2013-06-09 10:25:00,80.7,78.5,30.14,WNW,298,1.0,1.0,93,0.00,,,0.01,Wunderground v.1.15,2013-06-09 14:25:00,
2013-06-09 10:30:00,81.3,78.4,30.14,NW,324,1.0,4.0,91,0.00,,,0.01,Wunderground v.1.15,2013-06-09 14:30:00,
2013-06-09 10:35:00,81.8,77.5,30.14,NNE,14,2.0,5.0,87,0.00,,,0.01,Wunderground v.1.15,2013-06-09 14:35:00,
2013-06-09 10:40:00,82.3,77.3,30.14,NNE,22,2.0,5.0,85,0.00,,,0.01,Wunderground v.1.15,2013-06-09 14:40:00,
2013-06-09 10:45:00,83.0,77.7,30.14,NW,326,2.0,5.0,84,0.00,,,0.01,Wunderground v.1.15,2013-06-09 14:45:00,
2013-06-09 10:50:00,83.8,77.7,30.14,North,355,2.0,2.0,82,0.00,,,0.01,Wunderground v.1.15,2013-06-09 14:50:00,
2013-06-09 10:55:00,84.5,76.9,30.14,SW,220,1.0,2.0,78,0.00,,,0.01,Wunderground v.1.15,2013-06-09 14:55:00,
2013-06-09 11:00:00,85.0,77.4,30.14,NNW,337,1.0,1.0,78,0.00,,,0.01,Wunderground v.1.15,2013-06-09 15:00:00,
2013-06-09 11:05:00,85.2,76.8,30.14,NNW,343,1.0,1.0,76,0.00,,,0.01,Wunderground v.1.15,2013-06-09 15:05:00,
2013-06-09 11:10:00,85.4,76.6,30.14,NW,323,1.0,1.0,75,0.00,,,0.01,Wunderground v.1.15,2013-06-09 15:10:00,
2013-06-09 11:15:00,85.5,77.1,30.14,NW,311,1.0,1.0,76,0.00,,,0.01,Wunderground v.1.15,2013-06-09 15:15:00,
2013-06-09 11:20:00,85.7,77.3,30.14,NW,310,0.0,2.0,76,0.00,,,0.01,Wunderground v.1.15,2013-06-09 15:20:00,
2013-06-09 11:25:00,85.9,77.1,30.14,NNE,14,1.0,2.0,75,0.00,,,0.01,Wunderground v.1.15,2013-06-09 15:25:00,
2013-06-09 11:35:00,86.2,76.5,30.15,WNW,287,1.0,1.0,73,0.00,,,0.01,Wunderground v.1.15,2013-06-09 15:35:00,
2013-06-09 11:40:00,86.5,76.4,30.15,WNW,283,2.0,2.0,72,0.00,,,0.01,Wunderground v.1.15,2013-06-09 15:40:00,
2013-06-09 11:45:00,87.1,76.1,30.15,NW,324,2.0,4.0,70,0.00,,,0.01,Wunderground v.1.15,2013-06-09 15:45:00,
2013-06-09 11:50:00,87.6,77.0,30.15,NNW,331,2.0,2.0,71,0.00,,,0.01,Wunderground v.1.15,2013-06-09 15:50:00,
2013-06-09 11:55:00,88.1,77.1,30.15,NNE,27,2.0,2.0,70,0.00,,,0.01,Wunderground v.1.15,2013-06-09 15:55:00,
2013-06-09 12:00:00,88.4,76.5,30.14,North,351,2.0,3.0,68,0.00,,,0.01,Wunderground v.1.15,2013-06-09 16:00:00,
2013-06-09 12:05:00,88.5,76.1,30.14,NNW,344,3.0,3.0,67,0.00,,,0.01,Wunderground v.1.15,2013-06-09 16:05:00,
2013-06-09 12:10:00,88.8,76.4,30.14,North,4,2.0,3.0,67,0.00,,,0.01,Wunderground v.1.15,2013-06-09 16:10:00,
2013-06-09 12:15:00,89.0,76.6,30.14,NNE,12,2.0,3.0,67,0.00,,,0.01,Wunderground v.1.15,2013-06-09 16:15:00,
2013-06-09 12:20:00,89.3,77.3,30.14,NNE,14,2.0,2.0,68,0.00,,,0.01,Wunderground v.1.15,2013-06-09 16:20:00,
2013-06-09 12:25:00,89.6,77.2,30.14,NNW,340,2.0,2.0,67,0.00,,,0.01,Wunderground v.1.15,2013-06-09 16:25:00,
2013-06-09 12:30:00,89.6,76.7,30.14,NNW,328,2.0,2.0,66,0.00,,,0.01,Wunderground v.1.15,2013-06-09 16:30:00,
2013-06-09 12:35:00,89.5,76.2,30.15,NE,39,2.0,2.0,65,0.00,,,0.01,Wunderground v.1.15,2013-06-09 16:35:00,
2013-06-09 12:40:00,89.2,75.9,30.14,NW,325,2.0,2.0,65,0.00,,,0.01,Wunderground v.1.15,2013-06-09 16:40:00,
2013-06-09 12:45:00,89.2,76.4,30.14,NNW,332,2.0,2.0,66,0.00,,,0.01,Wunderground v.1.15,2013-06-09 16:45:00,
2013-06-09 12:50:00,89.6,76.3,30.14,North,353,2.0,2.0,65,0.00,,,0.01,Wunderground v.1.15,2013-06-09 16:50:00,
2013-06-09 12:55:00,89.8,76.5,30.14,NNW,345,2.0,2.0,65,0.00,,,0.01,Wunderground v.1.15,2013-06-09 16:55:00,
2013-06-09 13:00:00,90.2,76.4,30.13,NE,35,1.0,1.0,64,0.00,,,0.01,Wunderground v.1.15,2013-06-09 17:00:00,
2013-06-09 13:05:00,90.3,76.0,30.13,WSW,252,1.0,1.0,63,0.00,,,0.01,Wunderground v.1.15,2013-06-09 17:05:00,
2013-06-09 13:10:00,90.5,75.2,30.13,WNW,298,1.0,1.0,61,0.00,,,0.01,Wunderground v.1.15,2013-06-09 17:10:00,
2013-06-09 13:20:00,91.4,77.0,30.13,NNW,341,1.0,1.0,63,0.00,,,0.01,Wunderground v.1.15,2013-06-09 17:20:00,
2013-06-09 13:25:00,91.5,76.1,30.13,WNW,289,1.0,2.0,61,0.00,,,0.01,Wunderground v.1.15,2013-06-09 17:25:00,
2013-06-09 13:30:00,91.3,76.0,30.13,NNW,341,1.0,1.0,61,0.00,,,0.01,Wunderground v.1.15,2013-06-09 17:30:00,
2013-06-09 13:35:00,91.4,75.6,30.12,NNE,22,2.0,2.0,60,0.00,,,0.01,Wunderground v.1.15,2013-06-09 17:35:00,
2013-06-09 13:40:00,91.7,75.8,30.12,NNW,327,2.0,4.0,60,0.00,,,0.01,Wunderground v.1.15,2013-06-09 17:40:00,
2013-06-09 13:45:00,91.9,75.5,30.12,SW,235,1.0,4.0,59,0.00,,,0.01,Wunderground v.1.15,2013-06-09 17:45:00,
2013-06-09 13:50:00,92.0,75.6,30.11,NNW,343,1.0,1.0,59,0.00,,,0.01,Wunderground v.1.15,2013-06-09 17:50:00,
2013-06-09 13:55:00,91.9,76.0,30.11,NNW,336,1.0,1.0,60,0.00,,,0.01,Wunderground v.1.15,2013-06-09 17:55:00,
2013-06-09 14:00:00,91.8,76.4,30.11,NW,325,0.0,1.0,61,0.00,,,0.01,Wunderground v.1.15,2013-06-09 18:00:00,
2013-06-09 14:05:00,91.7,76.8,30.11,NW,325,1.0,1.0,62,0.00,,,0.01,Wunderground v.1.15,2013-06-09 18:05:00,
2013-06-09 14:10:00,91.5,75.7,30.10,NNW,336,1.0,1.0,60,0.00,,,0.01,Wunderground v.1.15,2013-06-09 18:10:00,
2013-06-09 14:15:00,91.6,76.2,30.11,NNW,330,1.0,1.0,61,0.00,,,0.01,Wunderground v.1.15,2013-06-09 18:15:00,
2013-06-09 14:20:00,91.5,76.6,30.11,NNW,333,1.0,5.0,62,0.00,,,0.01,Wunderground v.1.15,2013-06-09 18:20:00,
2013-06-09 14:25:00,91.1,76.7,30.11,WNW,288,1.0,5.0,63,0.00,,,0.01,Wunderground v.1.15,2013-06-09 18:25:00,
2013-06-09 14:30:00,90.8,76.5,30.10,WNW,282,1.0,1.0,63,0.00,,,0.01,Wunderground v.1.15,2013-06-09 18:30:00,
2013-06-09 14:35:00,90.4,76.6,30.10,West,264,1.0,1.0,64,0.00,,,0.01,Wunderground v.1.15,2013-06-09 18:35:00,
2013-06-09 14:40:00,89.5,76.2,30.10,NW,323,1.0,2.0,65,0.00,,,0.01,Wunderground v.1.15,2013-06-09 18:40:00,
2013-06-09 14:45:00,89.1,76.7,30.10,WSW,252,2.0,2.0,67,0.00,,,0.01,Wunderground v.1.15,2013-06-09 18:45:00,
2013-06-09 14:50:00,89.1,77.6,30.10,West,262,2.0,12.0,69,0.00,,,0.01,Wunderground v.1.15,2013-06-09 18:50:00,
2013-06-09 14:55:00,88.8,76.9,30.10,NNE,14,3.0,12.0,68,0.00,,,0.01,Wunderground v.1.15,2013-06-09 18:55:00,
2013-06-09 15:00:00,88.0,76.1,30.10,NNW,337,3.0,4.0,68,0.00,,,0.01,Wunderground v.1.15,2013-06-09 19:00:00,
2013-06-09 15:05:00,87.0,76.9,30.10,WSW,241,3.0,4.0,72,2.25,,,0.11,Wunderground v.1.15,2013-06-09 19:05:00,
2013-06-09 15:15:00,82.5,76.1,30.09,South,180,2.0,2.0,81,0.11,,,0.17,Wunderground v.1.15,2013-06-09 19:15:00,
2013-06-09 15:20:00,81.2,75.5,30.09,SW,222,1.0,4.0,83,0.06,,,0.17,Wunderground v.1.15,2013-06-09 19:20:00,
2013-06-09 15:25:00,80.5,75.6,30.09,SW,234,1.0,4.0,85,0.04,,,0.17,Wunderground v.1.15,2013-06-09 19:25:00,
2013-06-09 15:30:00,79.9,75.3,30.09,SSW,194,0.0,4.0,86,0.00,,,0.17,Wunderground v.1.15,2013-06-09 19:30:00,
2013-06-09 15:35:00,79.5,75.3,30.09,SSW,197,0.0,0.0,87,0.00,,,0.18,Wunderground v.1.15,2013-06-09 19:35:00,
2013-06-09 15:45:00,78.8,75.6,30.08,South,185,0.0,4.0,90,0.07,,,0.19,Wunderground v.1.15,2013-06-09 19:45:00,
2013-06-09 15:55:00,78.8,75.9,30.10,South,171,0.0,0.0,91,0.06,,,0.20,Wunderground v.1.15,2013-06-09 19:55:00,
2013-06-09 16:05:00,79.0,76.5,30.09,South,171,0.0,12.0,92,0.04,,,0.21,Wunderground v.1.15,2013-06-09 20:05:00,
2013-06-09 16:15:00,78.9,76.4,30.09,SSE,163,1.0,12.0,92,0.05,,,0.22,Wunderground v.1.15,2013-06-09 20:15:00,
2013-06-09 16:20:00,78.6,76.1,30.09,SSW,194,1.0,12.0,92,0.05,,,0.22,Wunderground v.1.15,2013-06-09 20:20:00,
2013-06-09 16:25:00,78.5,76.0,30.09,SE,143,1.0,12.0,92,0.05,,,0.22,Wunderground v.1.15,2013-06-09 20:25:00,
2013-06-09 16:30:00,78.2,75.7,30.09,South,175,0.0,12.0,92,0.04,,,0.22,Wunderground v.1.15,2013-06-09 20:30:00,
2013-06-09 16:35:00,78.2,76.0,30.09,South,175,0.0,12.0,93,0.00,,,0.22,Wunderground v.1.15,2013-06-09 20:35:00,
2013-06-09 16:40:00,78.3,76.1,30.09,South,189,0.0,12.0,93,0.00,,,0.22,Wunderground v.1.15,2013-06-09 20:40:00,
2013-06-09 16:45:00,78.3,76.1,30.09,SW,214,0.0,12.0,93,0.00,,,0.22,Wunderground v.1.15,2013-06-09 20:45:00,
2013-06-09 16:50:00,78.3,76.1,30.09,SW,226,0.0,12.0,93,0.00,,,0.22,Wunderground v.1.15,2013-06-09 20:50:00,
2013-06-09 16:55:00,78.4,76.2,30.09,SSW,203,0.0,12.0,93,0.00,,,0.23,Wunderground v.1.15,2013-06-09 20:55:00,
2013-06-09 17:00:00,78.3,76.1,30.08,SSW,203,0.0,12.0,93,0.09,,,0.24,Wunderground v.1.15,2013-06-09 21:00:00,
2013-06-09 17:05:00,78.3,76.1,30.07,SSW,202,0.0,12.0,93,0.09,,,0.24,Wunderground v.1.15,2013-06-09 21:05:00,
2013-06-09 17:11:00,78.4,76.5,30.08,SSW,202,0.0,0.0,94,0.06,,,0.25,Wunderground v.1.15,2013-06-09 21:11:00,
2013-06-09 17:15:00,78.4,76.5,30.07,SSW,202,0.0,0.0,94,0.06,,,0.25,Wunderground v.1.15,2013-06-09 21:15:00,
2013-06-09 17:20:00,78.5,76.6,30.06,SSW,202,0.0,0.0,94,0.05,,,0.25,Wunderground v.1.15,2013-06-09 21:20:00,
2013-06-09 17:30:00,79.4,77.5,30.06,SSW,204,2.0,2.0,94,0.00,,,0.25,Wunderground v.1.15,2013-06-09 21:30:00,
2013-06-09 17:35:00,79.6,77.7,30.06,SSW,209,1.0,3.0,94,0.00,,,0.25,Wunderground v.1.15,2013-06-09 21:35:00,
2013-06-09 17:40:00,79.5,77.6,30.06,SSW,208,2.0,4.0,94,0.00,,,0.25,Wunderground v.1.15,2013-06-09 21:40:00,
2013-06-09 17:45:00,79.2,77.0,30.06,SSW,208,2.0,2.0,93,0.00,,,0.25,Wunderground v.1.15,2013-06-09 21:45:00,
2013-06-09 17:50:00,79.1,77.2,30.07,SSW,208,1.0,2.0,94,0.00,,,0.25,Wunderground v.1.15,2013-06-09 21:50:00,
2013-06-09 17:55:00,79.1,76.9,30.07,SSW,208,0.0,0.0,93,0.00,,,0.25,Wunderground v.1.15,2013-06-09 21:55:00,
2013-06-09 18:00:00,79.1,76.9,30.07,SSW,208,0.0,0.0,93,0.00,,,0.25,Wunderground v.1.15,2013-06-09 22:00:00,
2013-06-09 18:05:00,79.1,76.9,30.06,SSW,208,0.0,1.0,93,0.00,,,0.25,Wunderground v.1.15,2013-06-09 22:05:00,
2013-06-09 18:10:00,79.0,76.8,30.06,SSW,208,0.0,1.0,93,0.00,,,0.25,Wunderground v.1.15,2013-06-09 22:10:00,
2013-06-09 18:15:00,78.9,76.7,30.06,SSW,208,0.0,1.0,93,0.00,,,0.25,Wunderground v.1.15,2013-06-09 22:15:00,
2013-06-09 18:20:00,78.9,76.7,30.06,SSW,208,0.0,1.0,93,0.00,,,0.25,Wunderground v.1.15,2013-06-09 22:20:00,
2013-06-09 18:25:00,78.9,76.7,30.07,SSW,208,0.0,1.0,93,0.00,,,0.25,Wunderground v.1.15,2013-06-09 22:25:00,
2013-06-09 18:30:00,78.8,76.6,30.07,SSW,208,0.0,1.0,93,0.00,,,0.25,Wunderground v.1.15,2013-06-09 22:30:00,
2013-06-09 18:35:00,78.8,76.6,30.07,SSW,208,0.0,1.0,93,0.00,,,0.25,Wunderground v.1.15,2013-06-09 22:35:00,
2013-06-09 18:40:00,78.7,76.5,30.07,SSW,208,0.0,1.0,93,0.00,,,0.25,Wunderground v.1.15,2013-06-09 22:40:00,
2013-06-09 18:45:00,78.8,76.9,30.07,SSW,208,0.0,1.0,94,0.00,,,0.25,Wunderground v.1.15,2013-06-09 22:45:00,
2013-06-09 18:50:00,78.8,76.9,30.07,SSW,208,0.0,1.0,94,0.00,,,0.25,Wunderground v.1.15,2013-06-09 22:50:00,
2013-06-09 18:55:00,78.8,76.9,30.07,SSW,208,0.0,1.0,94,0.00,,,0.25,Wunderground v.1.15,2013-06-09 22:55:00,
2013-06-09 19:00:00,78.8,76.9,30.08,SSW,208,0.0,1.0,94,0.00,,,0.25,Wunderground v.1.15,2013-06-09 23:00:00,
2013-06-09 19:05:00,78.7,76.8,30.08,SSW,208,0.0,1.0,94,0.00,,,0.25,Wunderground v.1.15,2013-06-09 23:05:00,
2013-06-09 19:10:00,78.7,76.8,30.09,SSW,208,0.0,1.0,94,0.00,,,0.25,Wunderground v.1.15,2013-06-09 23:10:00,
2013-06-09 19:15:00,78.7,76.8,30.09,SSW,208,0.0,1.0,94,0.00,,,0.25,Wunderground v.1.15,2013-06-09 23:15:00,
2013-06-09 19:20:00,78.7,76.8,30.10,SSW,208,0.0,1.0,94,0.00,,,0.25,Wunderground v.1.15,2013-06-09 23:20:00,
2013-06-09 19:25:00,78.7,76.8,30.10,SSW,208,0.0,1.0,94,0.00,,,0.25,Wunderground v.1.15,2013-06-09 23:25:00,
2013-06-09 19:30:00,78.6,76.7,30.11,SSW,208,0.0,1.0,94,0.00,,,0.25,Wunderground v.1.15,2013-06-09 23:30:00,
2013-06-09 19:35:00,78.6,76.7,30.11,SSW,208,0.0,1.0,94,0.00,,,0.25,Wunderground v.1.15,2013-06-09 23:35:00,
2013-06-09 19:45:00,78.5,76.6,30.11,SSW,208,0.0,1.0,94,0.00,,,0.25,Wunderground v.1.15,2013-06-09 23:45:00,
2013-06-09 19:50:00,78.5,76.6,30.12,SSW,208,0.0,1.0,94,0.00,,,0.25,Wunderground v.1.15,2013-06-09 23:50:00,
2013-06-09 20:00:00,78.4,76.5,30.11,SSW,208,0.0,1.0,94,0.00,,,0.25,Wunderground v.1.15,2013-06-10 00:00:00,
2013-06-09 20:05:00,78.3,76.4,30.11,SSW,208,0.0,1.0,94,0.00,,,0.25,Wunderground v.1.15,2013-06-10 00:05:00,
2013-06-09 20:10:00,78.3,76.4,30.11,SSW,208,0.0,1.0,94,0.00,,,0.25,Wunderground v.1.15,2013-06-10 00:10:00,
2013-06-09 20:15:00,78.3,76.4,30.10,SSW,208,0.0,1.0,94,0.00,,,0.25,Wunderground v.1.15,2013-06-10 00:15:00,
2013-06-09 20:20:00,78.2,76.3,30.11,SSW,208,0.0,1.0,94,0.00,,,0.25,Wunderground v.1.15,2013-06-10 00:20:00,
2013-06-09 20:30:00,78.2,76.6,30.11,SSW,208,0.0,1.0,95,0.00,,,0.25,Wunderground v.1.15,2013-06-10 00:30:00,
2013-06-09 20:40:00,78.1,76.6,30.10,SSW,208,0.0,1.0,95,0.00,,,0.25,Wunderground v.1.15,2013-06-10 00:40:00,
2013-06-09 20:45:00,78.0,76.5,30.10,SSW,208,0.0,1.0,95,0.00,,,0.25,Wunderground v.1.15,2013-06-10 00:45:00,
2013-06-09 20:50:00,78.0,76.5,30.10,SSW,208,0.0,1.0,95,0.00,,,0.25,Wunderground v.1.15,2013-06-10 00:50:00,
2013-06-09 20:55:00,77.9,76.4,30.10,SSW,208,0.0,1.0,95,0.00,,,0.25,Wunderground v.1.15,2013-06-10 00:55:00,
2013-06-09 21:05:00,77.8,76.3,30.10,SSW,208,0.0,1.0,95,0.00,,,0.25,Wunderground v.1.15,2013-06-10 01:05:00,
2013-06-09 21:10:00,77.8,76.3,30.10,SSW,208,0.0,1.0,95,0.00,,,0.25,Wunderground v.1.15,2013-06-10 01:10:00,
2013-06-09 21:15:00,77.7,76.2,30.10,SSW,208,0.0,1.0,95,0.00,,,0.25,Wunderground v.1.15,2013-06-10 01:15:00,
2013-06-09 21:20:00,77.6,76.1,30.11,SSW,208,0.0,1.0,95,0.00,,,0.25,Wunderground v.1.15,2013-06-10 01:20:00,
2013-06-09 21:25:00,77.5,76.0,30.11,SSW,208,0.0,1.0,95,0.00,,,0.25,Wunderground v.1.15,2013-06-10 01:25:00,
2013-06-09 21:30:00,77.4,75.9,30.11,SW,224,0.0,1.0,95,0.00,,,0.25,Wunderground v.1.15,2013-06-10 01:30:00,
2013-06-09 21:35:00,77.1,75.2,30.11,WNW,286,1.0,1.0,94,0.00,,,0.25,Wunderground v.1.15,2013-06-10 01:35:00,
2013-06-09 21:40:00,76.7,74.8,30.10,WNW,287,1.0,1.0,94,0.00,,,0.25,Wunderground v.1.15,2013-06-10 01:40:00,
2013-06-09 21:50:00,76.0,74.1,30.11,WNW,294,0.0,1.0,94,0.00,,,0.25,Wunderground v.1.15,2013-06-10 01:50:00,
2013-06-09 21:55:00,75.8,73.9,30.11,WNW,294,0.0,1.0,94,0.00,,,0.25,Wunderground v.1.15,2013-06-10 01:55:00,
2013-06-09 22:00:00,75.8,73.9,30.11,WNW,294,0.0,1.0,94,0.00,,,0.25,Wunderground v.1.15,2013-06-10 02:00:00,
2013-06-09 22:05:00,75.7,74.2,30.11,WNW,294,0.0,1.0,95,0.00,,,0.25,Wunderground v.1.15,2013-06-10 02:05:00,
2013-06-09 22:10:00,75.6,73.8,30.11,WNW,294,0.0,1.0,94,0.00,,,0.25,Wunderground v.1.15,2013-06-10 02:10:00,
2013-06-09 22:15:00,75.5,73.7,30.11,WNW,294,0.0,1.0,94,0.00,,,0.25,Wunderground v.1.15,2013-06-10 02:15:00,
2013-06-09 22:20:00,75.4,73.6,30.11,WNW,294,0.0,1.0,94,0.00,,,0.25,Wunderground v.1.15,2013-06-10 02:20:00,
2013-06-09 22:25:00,75.3,73.5,30.11,WNW,294,0.0,1.0,94,0.00,,,0.25,Wunderground v.1.15,2013-06-10 02:25:00,
2013-06-09 22:30:00,75.3,73.5,30.11,WNW,294,0.0,1.0,94,0.00,,,0.25,Wunderground v.1.15,2013-06-10 02:30:00,
2013-06-09 22:35:00,75.2,73.4,30.11,WNW,294,0.0,1.0,94,0.00,,,0.25,Wunderground v.1.15,2013-06-10 02:35:00,
2013-06-09 22:40:00,75.1,73.6,30.11,WNW,294,0.0,1.0,95,0.00,,,0.25,Wunderground v.1.15,2013-06-10 02:40:00,
2013-06-09 22:45:00,75.1,73.6,30.11,WNW,294,0.0,1.0,95,0.00,,,0.25,Wunderground v.1.15,2013-06-10 02:45:00,
2013-06-09 22:50:00,75.0,73.5,30.11,WNW,294,0.0,1.0,95,0.00,,,0.25,Wunderground v.1.15,2013-06-10 02:50:00,
2013-06-09 22:55:00,74.9,73.4,30.11,WNW,294,0.0,1.0,95,0.00,,,0.25,Wunderground v.1.15,2013-06-10 02:55:00,
2013-06-09 23:05:00,74.9,73.1,30.11,WNW,294,0.0,1.0,94,0.00,,,0.25,Wunderground v.1.15,2013-06-10 03:05:00,
2013-06-09 23:10:00,74.8,73.0,30.12,WNW,294,0.0,1.0,94,0.00,,,0.25,Wunderground v.1.15,2013-06-10 03:10:00,
2013-06-09 23:15:00,74.8,73.0,30.12,WNW,294,0.0,1.0,94,0.00,,,0.25,Wunderground v.1.15,2013-06-10 03:15:00,
2013-06-09 23:20:00,74.8,73.0,30.12,WNW,294,0.0,1.0,94,0.00,,,0.25,Wunderground v.1.15,2013-06-10 03:20:00,
2013-06-09 23:25:00,74.8,73.0,30.12,WNW,294,0.0,1.0,94,0.00,,,0.25,Wunderground v.1.15,2013-06-10 03:25:00,
2013-06-09 23:30:00,74.8,73.3,30.12,WNW,294,0.0,1.0,95,0.00,,,0.25,Wunderground v.1.15,2013-06-10 03:30:00,
2013-06-09 23:35:00,74.8,73.3,30.12,WNW,294,0.0,1.0,95,0.00,,,0.25,Wunderground v.1.15,2013-06-10 03:35:00,
2013-06-09 23:40:00,74.8,73.3,30.12,WNW,294,0.0,1.0,95,0.00,,,0.25,Wunderground v.1.15,2013-06-10 03:40:00,
2013-06-09 23:45:00,74.7,73.2,30.12,WNW,294,0.0,1.0,95,0.00,,,0.25,Wunderground v.1.15,2013-06-10 03:45:00,
2013-06-09 23:50:00,74.7,73.2,30.12,WNW,294,0.0,1.0,95,0.00,,,0.25,Wunderground v.1.15,2013-06-10 03:50:00,